Location: Recife
(8.0585°S, 34.8848°W)
Time: 13:08:39
(UTC-03:00)

Transit 2A - All Passes

Search period start: 14 April 2026 00:00
Search period end: 24 April 2026 00:00
Orbit: 592 x 952 km, 66.7° (Epoch: 14 April)

Date Brightness Start Highest point End Pass type
(mag) Time Alt. Az. Time Alt. Az. Time Alt. Az.
14 Apr - 08:09:31 10° NE 08:10:46 11° ENE 08:12:01 10° E daylight
14 Apr - 09:49:41 10° NW 09:53:27 28° WSW 09:57:08 10° S daylight
14 Apr - 20:32:59 10° SSW 20:38:55 84° ESE 20:45:11 10° NNE night (unlit)
15 Apr - 09:12:46 10° NNW 09:17:05 56° WSW 09:21:18 10° S daylight
15 Apr - 19:56:50 10° S 20:02:33 50° ESE 20:08:34 10° NE night (unlit)
15 Apr - 21:42:14 10° WSW 21:45:23 14° WNW 21:48:36 10° NW night (unlit)
16 Apr - 08:36:20 10° NNW 08:40:44 70° ENE 08:45:00 10° SSE daylight
16 Apr - 19:21:04 10° S 19:26:11 30° ESE 19:31:30 10° NE night (unlit)
16 Apr - 21:04:12 10° SW 21:09:00 25° WNW 21:13:59 10° NNW night (unlit)
17 Apr - 08:00:24 10° N 08:04:24 34° ENE 08:08:17 10° SE daylight
17 Apr - 18:45:53 10° SSE 18:49:46 18° ESE 18:53:46 10° ENE visible
17 Apr - 20:27:02 10° SW 20:32:38 41° WNW 20:38:29 10° N night (unlit)
18 Apr - 07:25:06 10° NNE 07:28:02 17° ENE 07:30:55 10° ESE daylight
18 Apr - 09:07:45 10° WNW 09:10:43 18° WSW 09:13:41 10° SSW daylight
18 Apr - 19:50:19 10° SSW 19:56:15 70° WNW 20:02:30 10° NNE visible
19 Apr - 08:30:21 10° NW 08:34:20 34° WSW 08:38:15 10° S daylight
19 Apr - 19:13:57 10° SSW 19:19:54 71° ESE 19:26:08 10° NNE visible
20 Apr - 07:53:37 10° NNW 07:57:58 72° WSW 08:02:15 10° SSE daylight
20 Apr - 18:37:55 10° S 18:43:31 42° ESE 18:49:23 10° NE visible
20 Apr - 20:22:28 10° WSW 20:26:21 18° WNW 20:30:19 10° NNW visible
21 Apr - 07:17:20 10° N 07:21:37 55° ENE 07:25:49 10° SSE daylight
21 Apr - 18:02:18 10° SSE 18:07:08 25° ESE 18:12:09 10° ENE visible
21 Apr - 19:44:49 10° SW 19:49:58 30° WNW 19:55:19 10° NNW visible
22 Apr - 06:41:34 10° NNE 06:45:17 27° ENE 06:48:55 10° SE daylight
22 Apr - 08:26:37 10° W 08:28:01 11° WSW 08:29:26 10° SW daylight
22 Apr - 17:27:24 10° SE 17:30:42 15° ESE 17:34:04 10° E visible
22 Apr - 19:07:48 10° SW 19:13:36 49° WNW 19:19:38 10° N visible
23 Apr - 06:06:40 10° NE 06:08:56 14° ENE 06:11:10 10° ESE daylight
23 Apr - 07:48:13 10° WNW 07:51:36 22° WSW 07:54:58 10° SSW daylight
23 Apr - 18:31:12 10° SSW 18:37:14 83° WNW 18:43:31 10° NNE visible
